Time,TemperatureF,DewpointF,PressureIn,WindDirection,WindDirectionDegrees,WindSpeedMPH,WindSpeedGustMPH,Humidity,HourlyPrecipIn,Conditions,Clouds,dailyrainin,SoftwareType,DateUTC
2013-03-25 00:00:00,36.9,23.1,30.11,WNW,292,0.0,0.0,57,0.00,CLR,,0.00,WeatherDisplay:10.37,2013-03-25 07:00:00,
2013-03-25 00:05:00,36.9,23.5,30.10,WNW,292,0.0,0.0,58,0.00,CLR,,0.00,WeatherDisplay:10.37,2013-03-25 07:05:00,
2013-03-25 00:10:00,36.9,23.5,30.10,WNW,292,0.0,0.0,58,0.00,CLR,,0.00,WeatherDisplay:10.37,2013-03-25 07:10:00,
2013-03-25 00:15:00,36.8,23.4,30.10,WNW,292,0.0,0.0,58,0.00,CLR,,0.00,WeatherDisplay:10.37,2013-03-25 07:15:00,
2013-03-25 00:20:00,36.6,23.2,30.10,WNW,292,0.0,0.0,58,0.00,CLR,,0.00,WeatherDisplay:10.37,2013-03-25 07:20:00,
2013-03-25 00:25:00,36.6,23.2,30.10,WNW,292,0.0,0.0,58,0.00,CLR,,0.00,WeatherDisplay:10.37,2013-03-25 07:25:00,
2013-03-25 00:30:00,36.6,23.2,30.10,WNW,292,0.0,0.0,58,0.00,CLR,,0.00,WeatherDisplay:10.37,2013-03-25 07:30:00,
2013-03-25 00:35:00,36.5,23.5,30.09,WNW,292,0.0,0.0,59,0.00,CLR,,0.00,WeatherDisplay:10.37,2013-03-25 07:35:00,
2013-03-25 00:40:00,36.5,23.5,30.10,WNW,292,0.0,0.0,59,0.00,CLR,,0.00,WeatherDisplay:10.37,2013-03-25 07:40:00,
2013-03-25 00:46:00,36.3,23.3,30.10,WNW,292,0.0,0.0,59,0.00,CLR,,0.00,WeatherDisplay:10.37,2013-03-25 07:46:00,
2013-03-25 00:52:00,36.2,23.2,30.10,WNW,292,0.0,0.0,59,0.00,CLR,,0.00,WeatherDisplay:10.37,2013-03-25 07:52:00,
2013-03-25 00:57:00,36.2,23.2,30.09,WNW,292,0.0,0.0,59,0.00,CLR,,0.00,WeatherDisplay:10.37,2013-03-25 07:57:00,
2013-03-25 01:02:00,36.0,23.4,30.08,WNW,292,0.0,0.0,60,0.00,CLR,,0.00,WeatherDisplay:10.37,2013-03-25 08:02:00,
2013-03-25 01:07:00,35.8,23.3,30.08,WNW,292,0.0,0.0,60,0.00,CLR,,0.00,WeatherDisplay:10.37,2013-03-25 08:07:00,
2013-03-25 01:12:00,35.6,23.5,30.08,WNW,292,0.0,0.0,61,0.00,CLR,,0.00,WeatherDisplay:10.37,2013-03-25 08:12:00,
2013-03-25 01:17:00,35.5,23.4,30.08,WNW,292,0.0,0.0,61,0.00,CLR,,0.00,WeatherDisplay:10.37,2013-03-25 08:17:00,
2013-03-25 01:22:00,35.3,23.6,30.09,WNW,292,0.0,0.0,62,0.00,CLR,,0.00,WeatherDisplay:10.37,2013-03-25 08:22:00,
2013-03-25 01:27:00,35.2,23.5,30.09,WNW,292,0.0,0.0,62,0.00,CLR,,0.00,WeatherDisplay:10.37,2013-03-25 08:27:00,
2013-03-25 01:32:00,35.0,23.3,30.10,WNW,292,0.0,0.0,62,0.00,CLR,,0.00,WeatherDisplay:10.37,2013-03-25 08:32:00,
2013-03-25 01:37:00,35.0,23.3,30.10,WNW,292,0.0,0.0,62,0.00,CLR,,0.00,WeatherDisplay:10.37,2013-03-25 08:37:00,
2013-03-25 01:43:00,34.9,23.2,30.10,WNW,292,0.0,0.0,62,0.00,CLR,,0.00,WeatherDisplay:10.37,2013-03-25 08:43:00,
2013-03-25 01:48:00,34.7,23.0,30.10,WNW,292,0.0,0.0,62,0.00,CLR,,0.00,WeatherDisplay:10.37,2013-03-25 08:48:00,
2013-03-25 01:54:00,34.7,23.0,30.10,WNW,292,0.0,0.0,62,0.00,CLR,,0.00,WeatherDisplay:10.37,2013-03-25 08:54:00,
2013-03-25 01:59:00,34.7,23.0,30.10,WNW,292,0.0,0.0,62,0.00,CLR,,0.00,WeatherDisplay:10.37,2013-03-25 08:59:00,
2013-03-25 02:04:00,34.6,22.9,30.09,WNW,292,0.0,0.0,62,0.00,CLR,,0.00,WeatherDisplay:10.37,2013-03-25 09:04:00,
2013-03-25 02:09:00,34.6,22.9,30.09,WNW,292,0.0,0.0,62,0.00,CLR,,0.00,WeatherDisplay:10.37,2013-03-25 09:09:00,
2013-03-25 02:14:00,34.6,22.9,30.09,WNW,292,0.0,0.0,62,0.00,CLR,,0.00,WeatherDisplay:10.37,2013-03-25 09:14:00,
2013-03-25 02:19:00,34.4,22.7,30.09,WNW,292,0.0,0.0,62,0.00,CLR,,0.00,WeatherDisplay:10.37,2013-03-25 09:19:00,
2013-03-25 02:24:00,34.4,22.7,30.09,WNW,292,0.0,0.0,62,0.00,CLR,,0.00,WeatherDisplay:10.37,2013-03-25 09:24:00,
2013-03-25 02:29:00,34.4,22.7,30.09,WNW,292,0.0,0.0,62,0.00,CLR,,0.00,WeatherDisplay:10.37,2013-03-25 09:29:00,
2013-03-25 02:35:00,34.4,22.7,30.08,WNW,292,0.0,0.0,62,0.00,CLR,,0.00,WeatherDisplay:10.37,2013-03-25 09:35:00,
2013-03-25 02:40:00,34.3,22.6,30.08,WNW,292,0.0,0.0,62,0.00,CLR,,0.00,WeatherDisplay:10.37,2013-03-25 09:40:00,
2013-03-25 02:46:00,34.1,22.8,30.08,WNW,292,0.0,0.0,63,0.00,CLR,,0.00,WeatherDisplay:10.37,2013-03-25 09:46:00,
2013-03-25 02:51:00,34.0,22.7,30.08,WNW,292,0.0,0.0,63,0.00,CLR,,0.00,WeatherDisplay:10.37,2013-03-25 09:51:00,
2013-03-25 02:56:00,33.8,22.5,30.08,WNW,292,0.0,0.0,63,0.00,CLR,,0.00,WeatherDisplay:10.37,2013-03-25 09:56:00,
2013-03-25 03:02:00,33.7,22.8,30.08,WNW,292,0.0,0.0,64,0.00,CLR,,0.00,WeatherDisplay:10.37,2013-03-25 10:02:00,
2013-03-25 03:07:00,33.7,22.8,30.07,WNW,292,0.0,0.0,64,0.00,CLR,,0.00,WeatherDisplay:10.37,2013-03-25 10:07:00,
2013-03-25 03:12:00,33.5,22.6,30.07,WNW,292,0.0,0.0,64,0.00,CLR,,0.00,WeatherDisplay:10.37,2013-03-25 10:12:00,
2013-03-25 03:18:00,33.4,22.9,30.08,WNW,292,0.0,0.0,65,0.00,CLR,,0.00,WeatherDisplay:10.37,2013-03-25 10:18:00,
2013-03-25 03:23:00,33.2,22.7,30.08,WNW,292,0.0,0.0,65,0.00,CLR,,0.00,WeatherDisplay:10.37,2013-03-25 10:23:00,
2013-03-25 03:28:00,33.2,22.7,30.08,WNW,292,0.0,0.0,65,0.00,CLR,,0.00,WeatherDisplay:10.37,2013-03-25 10:28:00,
2013-03-25 03:33:00,33.1,23.0,30.08,WNW,292,0.0,0.0,66,0.00,CLR,,0.00,WeatherDisplay:10.37,2013-03-25 10:33:00,
2013-03-25 03:39:00,32.8,23.0,30.07,WNW,292,0.0,0.0,67,0.00,CLR,,0.00,WeatherDisplay:10.37,2013-03-25 10:39:00,
2013-03-25 03:44:00,32.8,22.7,30.07,WNW,292,0.0,0.0,66,0.00,CLR,,0.00,WeatherDisplay:10.37,2013-03-25 10:44:00,
2013-03-25 03:49:00,32.8,22.7,30.07,WNW,292,0.0,0.0,66,0.00,CLR,,0.00,WeatherDisplay:10.37,2013-03-25 10:49:00,
2013-03-25 03:54:00,32.7,22.9,30.07,WNW,292,0.0,0.0,67,0.00,CLR,,0.00,WeatherDisplay:10.37,2013-03-25 10:54:00,
2013-03-25 04:00:00,32.7,22.9,30.07,WNW,292,0.0,0.0,67,0.00,CLR,,0.00,WeatherDisplay:10.37,2013-03-25 11:00:00,
2013-03-25 04:05:00,32.5,23.1,30.07,WNW,292,0.0,0.0,68,0.00,CLR,,0.00,WeatherDisplay:10.37,2013-03-25 11:05:00,
2013-03-25 04:10:00,32.2,22.8,30.07,WNW,292,0.0,0.0,68,0.00,CLR,,0.00,WeatherDisplay:10.37,2013-03-25 11:10:00,
2013-03-25 04:15:00,31.9,22.9,30.07,WNW,292,0.0,0.0,69,0.00,CLR,,0.00,WeatherDisplay:10.37,2013-03-25 11:15:00,
2013-03-25 04:20:00,31.8,22.8,30.07,WNW,292,0.0,0.0,69,0.00,CLR,,0.00,WeatherDisplay:10.37,2013-03-25 11:20:00,
2013-03-25 04:25:00,31.8,22.4,30.07,WNW,292,0.0,0.0,68,0.00,CLR,,0.00,WeatherDisplay:10.37,2013-03-25 11:25:00,
2013-03-25 04:30:00,31.8,22.4,30.07,WNW,292,0.0,0.0,68,0.00,CLR,,0.00,WeatherDisplay:10.37,2013-03-25 11:30:00,
2013-03-25 04:35:00,31.8,22.4,30.07,WNW,292,0.0,0.0,68,0.00,CLR,,0.00,WeatherDisplay:10.37,2013-03-25 11:35:00,
2013-03-25 04:40:00,31.8,22.4,30.07,WNW,292,0.0,0.0,68,0.00,CLR,,0.00,WeatherDisplay:10.37,2013-03-25 11:40:00,
2013-03-25 04:45:00,31.9,22.5,30.07,WNW,292,0.0,0.0,68,0.00,CLR,,0.00,WeatherDisplay:10.37,2013-03-25 11:45:00,
2013-03-25 04:50:00,31.9,22.5,30.07,WNW,292,0.0,0.0,68,0.00,CLR,,0.00,WeatherDisplay:10.37,2013-03-25 11:50:00,
2013-03-25 04:55:00,31.9,22.5,30.07,WNW,292,0.0,0.0,68,0.00,CLR,,0.00,WeatherDisplay:10.37,2013-03-25 11:55:00,
2013-03-25 05:00:00,31.9,22.2,30.07,WNW,292,0.0,0.0,67,0.00,CLR,,0.00,WeatherDisplay:10.37,2013-03-25 12:00:00,
2013-03-25 05:05:00,31.9,22.5,30.08,WNW,292,0.0,0.0,68,0.00,CLR,,0.00,WeatherDisplay:10.37,2013-03-25 12:05:00,
2013-03-25 05:10:00,31.8,22.4,30.07,WNW,292,0.0,0.0,68,0.00,CLR,,0.00,WeatherDisplay:10.37,2013-03-25 12:10:00,
2013-03-25 05:15:00,31.8,22.4,30.07,WNW,292,0.0,0.0,68,0.00,CLR,,0.00,WeatherDisplay:10.37,2013-03-25 12:15:00,
2013-03-25 05:20:00,31.6,22.6,30.07,WNW,292,0.0,0.0,69,0.00,CLR,,0.00,WeatherDisplay:10.37,2013-03-25 12:20:00,
2013-03-25 05:25:00,31.5,22.5,30.07,WNW,292,0.0,0.0,69,0.00,CLR,,0.00,WeatherDisplay:10.37,2013-03-25 12:25:00,
2013-03-25 05:30:00,31.3,22.3,30.08,WNW,292,0.0,0.0,69,0.00,CLR,,0.00,WeatherDisplay:10.37,2013-03-25 12:30:00,
2013-03-25 05:35:00,31.3,22.3,30.08,WNW,292,0.0,0.0,69,0.00,CLR,,0.00,WeatherDisplay:10.37,2013-03-25 12:35:00,
2013-03-25 05:40:00,31.2,22.5,30.08,WNW,292,0.0,0.0,70,0.00,CLR,,0.00,WeatherDisplay:10.37,2013-03-25 12:40:00,
2013-03-25 05:45:00,31.3,22.6,30.08,WNW,292,0.0,0.0,70,0.00,CLR,,0.00,WeatherDisplay:10.37,2013-03-25 12:45:00,
2013-03-25 05:50:00,31.3,22.6,30.08,WNW,292,0.0,0.0,70,0.00,CLR,,0.00,WeatherDisplay:10.37,2013-03-25 12:50:00,
2013-03-25 05:55:00,31.3,22.6,30.08,WNW,292,0.0,0.0,70,0.00,CLR,,0.00,WeatherDisplay:10.37,2013-03-25 12:55:00,
2013-03-25 06:00:00,31.2,22.5,30.08,WNW,292,0.0,0.0,70,0.00,CLR,,0.00,WeatherDisplay:10.37,2013-03-25 13:00:00,
2013-03-25 06:05:00,31.2,22.5,30.09,WNW,292,0.0,0.0,70,0.00,CLR,,0.00,WeatherDisplay:10.37,2013-03-25 13:05:00,
2013-03-25 06:10:00,30.9,22.6,30.09,WNW,292,0.0,0.0,71,0.00,CLR,,0.00,WeatherDisplay:10.37,2013-03-25 13:10:00,
2013-03-25 06:15:00,30.7,22.4,30.09,WNW,292,0.0,0.0,71,0.00,CLR,,0.00,WeatherDisplay:10.37,2013-03-25 13:15:00,
2013-03-25 06:20:00,30.4,22.4,30.09,WNW,292,0.0,0.0,72,0.00,CLR,,0.00,WeatherDisplay:10.37,2013-03-25 13:20:00,
2013-03-25 06:25:00,30.3,22.4,30.09,WNW,292,0.0,0.0,72,0.00,CLR,,0.00,WeatherDisplay:10.37,2013-03-25 13:25:00,
2013-03-25 06:30:00,30.1,22.2,30.09,WNW,292,0.0,0.0,72,0.00,CLR,,0.00,WeatherDisplay:10.37,2013-03-25 13:30:00,
2013-03-25 06:35:00,30.0,22.1,30.09,WNW,292,0.0,0.0,72,0.00,CLR,,0.00,WeatherDisplay:10.37,2013-03-25 13:35:00,
2013-03-25 06:40:00,30.0,22.1,30.09,WNW,292,0.0,0.0,72,0.00,CLR,,0.00,WeatherDisplay:10.37,2013-03-25 13:40:00,
2013-03-25 06:45:00,30.0,22.1,30.10,WNW,292,0.0,0.0,72,0.00,CLR,,0.00,WeatherDisplay:10.37,2013-03-25 13:45:00,
2013-03-25 06:50:00,30.0,22.1,30.10,WNW,292,0.0,0.0,72,0.00,CLR,,0.00,WeatherDisplay:10.37,2013-03-25 13:50:00,
2013-03-25 06:55:00,29.8,22.2,30.10,WNW,292,0.0,0.0,73,0.00,CLR,,0.00,WeatherDisplay:10.37,2013-03-25 13:55:00,
2013-03-25 07:00:00,29.8,22.2,30.09,WNW,292,0.0,0.0,73,0.00,CLR,,0.00,WeatherDisplay:10.37,2013-03-25 14:00:00,
2013-03-25 07:07:00,29.8,22.2,30.10,WNW,292,0.0,0.0,73,0.00,CLR,,0.00,WeatherDisplay:10.37,2013-03-25 14:07:00,
2013-03-25 07:12:00,29.8,21.9,30.10,WNW,292,0.0,0.0,72,0.00,CLR,,0.00,WeatherDisplay:10.37,2013-03-25 14:12:00,
2013-03-25 07:18:00,29.4,21.8,30.10,WNW,292,0.0,0.0,73,0.00,CLR,,0.00,WeatherDisplay:10.37,2013-03-25 14:18:00,
2013-03-25 07:24:00,29.3,22.0,30.11,WNW,292,0.0,0.0,74,0.00,CLR,,0.00,WeatherDisplay:10.37,2013-03-25 14:24:00,
2013-03-25 07:29:00,29.1,21.8,30.11,WNW,292,0.0,0.0,74,0.00,CLR,,0.00,WeatherDisplay:10.37,2013-03-25 14:29:00,
2013-03-25 07:35:00,29.3,22.0,30.11,WNW,292,0.0,0.0,74,0.00,CLR,,0.00,WeatherDisplay:10.37,2013-03-25 14:35:00,
2013-03-25 07:40:00,29.5,22.2,30.10,WNW,292,0.0,0.0,74,0.00,CLR,,0.00,WeatherDisplay:10.37,2013-03-25 14:40:00,
2013-03-25 07:45:00,29.8,22.5,30.10,WNW,292,0.0,0.0,74,0.00,CLR,,0.00,WeatherDisplay:10.37,2013-03-25 14:45:00,
2013-03-25 07:50:00,30.1,22.8,30.10,WNW,292,0.0,0.0,74,0.00,CLR,,0.00,WeatherDisplay:10.37,2013-03-25 14:50:00,
2013-03-25 07:55:00,30.6,23.0,30.10,WNW,292,0.0,0.0,73,0.00,CLR,,0.00,WeatherDisplay:10.37,2013-03-25 14:55:00,
2013-03-25 08:00:00,31.0,23.4,30.10,WNW,292,0.0,0.0,73,0.00,CLR,,0.00,WeatherDisplay:10.37,2013-03-25 15:00:00,
2013-03-25 08:05:00,31.3,23.3,30.10,WNW,292,0.0,0.0,72,0.00,CLR,,0.00,WeatherDisplay:10.37,2013-03-25 15:05:00,
2013-03-25 08:10:00,31.6,23.6,30.10,WNW,292,0.0,0.0,72,0.00,CLR,,0.00,WeatherDisplay:10.37,2013-03-25 15:10:00,
2013-03-25 08:16:00,32.1,23.4,30.10,WNW,292,0.0,0.0,70,0.00,CLR,,0.00,WeatherDisplay:10.37,2013-03-25 15:16:00,
2013-03-25 08:22:00,32.8,23.4,30.08,WNW,292,0.0,0.0,68,0.00,CLR,,0.00,WeatherDisplay:10.37,2013-03-25 15:22:00,
2013-03-25 08:27:00,33.4,23.3,30.09,WNW,292,0.0,0.0,66,0.00,CLR,,0.00,WeatherDisplay:10.37,2013-03-25 15:27:00,
2013-03-25 08:32:00,33.7,22.8,30.09,WNW,292,0.0,0.0,64,0.00,CLR,,0.00,WeatherDisplay:10.37,2013-03-25 15:32:00,
2013-03-25 08:37:00,33.7,22.4,30.09,WNW,292,0.0,0.0,63,0.00,CLR,,0.00,WeatherDisplay:10.37,2013-03-25 15:37:00,
2013-03-25 08:42:00,34.0,22.3,30.09,WNW,292,0.0,0.0,62,0.00,CLR,,0.00,WeatherDisplay:10.37,2013-03-25 15:42:00,
2013-03-25 08:48:00,34.1,22.4,30.09,WNW,292,0.0,0.0,62,0.00,CLR,,0.00,WeatherDisplay:10.37,2013-03-25 15:48:00,
2013-03-25 08:53:00,34.4,22.3,30.08,WNW,292,0.0,0.0,61,0.00,CLR,,0.00,WeatherDisplay:10.37,2013-03-25 15:53:00,
2013-03-25 08:59:00,34.9,22.8,30.08,WNW,292,0.0,0.0,61,0.00,CLR,,0.00,WeatherDisplay:10.37,2013-03-25 15:59:00,
2013-03-25 09:04:00,35.3,23.6,30.08,WNW,292,0.0,0.0,62,0.00,CLR,,0.00,WeatherDisplay:10.37,2013-03-25 16:04:00,
2013-03-25 09:09:00,35.6,23.1,30.08,WNW,292,0.0,0.0,60,0.00,CLR,,0.00,WeatherDisplay:10.37,2013-03-25 16:09:00,
2013-03-25 09:14:00,36.0,23.0,30.07,WNW,292,0.0,0.0,59,0.00,CLR,,0.00,WeatherDisplay:10.37,2013-03-25 16:14:00,
2013-03-25 09:20:00,36.8,23.4,30.07,WNW,292,0.0,0.0,58,0.00,CLR,,0.00,WeatherDisplay:10.37,2013-03-25 16:20:00,
2013-03-25 09:25:00,37.0,23.6,30.07,WNW,292,0.0,0.0,58,0.00,CLR,,0.00,WeatherDisplay:10.37,2013-03-25 16:25:00,
2013-03-25 09:30:00,36.9,23.9,30.07,WNW,292,0.0,0.0,59,0.00,CLR,,0.00,WeatherDisplay:10.37,2013-03-25 16:30:00,
2013-03-25 09:35:00,36.9,23.1,30.07,WNW,292,0.0,0.0,57,0.00,CLR,,0.00,WeatherDisplay:10.37,2013-03-25 16:35:00,
2013-03-25 09:40:00,37.2,23.8,30.07,WNW,292,0.0,0.0,58,0.00,CLR,,0.00,WeatherDisplay:10.37,2013-03-25 16:40:00,
2013-03-25 09:47:00,37.6,22.9,30.06,WNW,292,0.0,0.0,55,0.00,CLR,,0.00,WeatherDisplay:10.37,2013-03-25 16:47:00,
2013-03-25 09:53:00,38.2,23.4,30.06,WNW,292,0.0,0.0,55,0.00,CLR,,0.00,WeatherDisplay:10.37,2013-03-25 16:53:00,
2013-03-25 09:58:00,38.3,23.5,30.06,WNW,292,0.0,0.0,55,0.00,CLR,,0.00,WeatherDisplay:10.37,2013-03-25 16:58:00,
2013-03-25 10:04:00,38.3,23.5,30.06,WNW,292,0.0,0.0,55,0.00,CLR,,0.00,WeatherDisplay:10.37,2013-03-25 17:04:00,
2013-03-25 10:09:00,38.5,22.8,30.06,WNW,292,0.0,0.0,53,0.00,CLR,,0.00,WeatherDisplay:10.37,2013-03-25 17:09:00,
2013-03-25 10:14:00,39.1,23.4,30.06,WNW,292,0.0,0.0,53,0.00,CLR,,0.00,WeatherDisplay:10.37,2013-03-25 17:14:00,
2013-03-25 10:19:00,39.3,23.1,30.05,WNW,292,0.0,0.0,52,0.00,CLR,,0.00,WeatherDisplay:10.37,2013-03-25 17:19:00,
2013-03-25 10:25:00,39.3,22.7,30.05,WNW,292,0.0,0.0,51,0.00,CLR,,0.00,WeatherDisplay:10.37,2013-03-25 17:25:00,
2013-03-25 10:30:00,39.9,23.7,30.04,WNW,292,0.0,0.0,52,0.00,CLR,,0.00,WeatherDisplay:10.37,2013-03-25 17:30:00,
2013-03-25 10:35:00,40.2,22.5,30.04,NW,305,0.0,0.0,49,0.00,CLR,,0.00,WeatherDisplay:10.37,2013-03-25 17:35:00,
2013-03-25 10:40:00,40.3,22.6,30.04,NW,305,0.0,0.0,49,0.00,CLR,,0.00,WeatherDisplay:10.37,2013-03-25 17:40:00,
2013-03-25 10:46:00,40.9,23.2,30.04,NW,305,0.0,0.0,49,0.00,CLR,,0.00,WeatherDisplay:10.37,2013-03-25 17:46:00,
2013-03-25 10:52:00,41.9,23.1,30.03,NW,312,0.0,0.0,47,0.00,CLR,,0.00,WeatherDisplay:10.37,2013-03-25 17:52:00,
2013-03-25 10:58:00,42.3,23.5,30.03,NW,312,0.0,0.0,47,0.00,CLR,,0.00,WeatherDisplay:10.37,2013-03-25 17:58:00,
2013-03-25 11:04:00,42.1,23.3,30.03,NW,312,0.0,0.0,47,0.00,CLR,,0.00,WeatherDisplay:10.37,2013-03-25 18:04:00,
2013-03-25 11:09:00,42.8,23.9,30.02,NNW,340,0.0,0.0,47,0.00,CLR,,0.00,WeatherDisplay:10.37,2013-03-25 18:09:00,
2013-03-25 11:14:00,43.2,23.8,30.02,NNW,340,0.0,0.0,46,0.00,CLR,,0.00,WeatherDisplay:10.37,2013-03-25 18:14:00,
2013-03-25 11:20:00,43.3,22.8,30.02,North,0,0.0,0.0,44,0.00,CLR,,0.00,WeatherDisplay:10.37,2013-03-25 18:20:00,
2013-03-25 11:25:00,43.8,24.3,30.01,North,0,0.0,0.0,46,0.00,CLR,,0.00,WeatherDisplay:10.37,2013-03-25 18:25:00,
2013-03-25 11:30:00,44.2,23.1,30.01,North,0,0.0,0.0,43,0.00,CLR,,0.00,WeatherDisplay:10.37,2013-03-25 18:30:00,
2013-03-25 11:35:00,44.8,23.6,30.01,NNW,347,0.0,0.0,43,0.00,CLR,,0.00,WeatherDisplay:10.37,2013-03-25 18:35:00,
2013-03-25 11:40:00,44.9,23.2,30.00,NW,315,0.0,0.0,42,0.00,CLR,,0.00,WeatherDisplay:10.37,2013-03-25 18:40:00,
2013-03-25 11:45:00,44.6,22.9,30.00,NW,313,0.0,0.0,42,0.00,CLR,,0.00,WeatherDisplay:10.37,2013-03-25 18:45:00,
2013-03-25 11:50:00,44.6,23.5,30.00,NW,313,0.0,0.0,43,0.00,CLR,,0.00,WeatherDisplay:10.37,2013-03-25 18:50:00,
2013-03-25 11:55:00,44.5,22.8,30.00,NW,313,0.0,0.0,42,0.00,CLR,,0.00,WeatherDisplay:10.37,2013-03-25 18:55:00,
2013-03-25 12:00:00,44.8,22.5,29.99,NW,313,0.0,0.0,41,0.00,CLR,,0.00,WeatherDisplay:10.37,2013-03-25 19:00:00,
2013-03-25 12:05:00,45.2,22.9,30.00,NW,313,0.0,0.0,41,0.00,CLR,,0.00,WeatherDisplay:10.37,2013-03-25 19:05:00,
2013-03-25 12:10:00,45.7,24.5,29.99,NW,313,0.0,0.0,43,0.00,CLR,,0.00,WeatherDisplay:10.37,2013-03-25 19:10:00,
2013-03-25 12:15:00,45.8,22.8,29.99,NW,312,0.0,0.0,40,0.00,CLR,,0.00,WeatherDisplay:10.37,2013-03-25 19:15:00,
2013-03-25 12:20:00,46.2,22.6,29.99,NW,316,0.0,0.0,39,0.00,CLR,,0.00,WeatherDisplay:10.37,2013-03-25 19:20:00,
2013-03-25 12:25:00,46.5,22.2,29.98,NW,316,0.0,0.0,38,0.00,CLR,,0.00,WeatherDisplay:10.37,2013-03-25 19:25:00,
2013-03-25 12:30:00,47.1,22.8,29.98,NW,316,0.0,0.0,38,0.00,CLR,,0.00,WeatherDisplay:10.37,2013-03-25 19:30:00,
2013-03-25 12:37:00,47.1,22.8,29.97,NW,316,0.0,0.0,38,0.00,CLR,,0.00,WeatherDisplay:10.37,2013-03-25 19:37:00,
2013-03-25 12:42:00,47.4,23.7,29.97,WNW,299,0.0,0.0,39,0.00,CLR,,0.00,WeatherDisplay:10.37,2013-03-25 19:42:00,
2013-03-25 12:48:00,47.3,23.6,29.97,WNW,298,0.0,0.0,39,0.00,CLR,,0.00,WeatherDisplay:10.37,2013-03-25 19:48:00,
2013-03-25 12:53:00,47.3,22.9,29.97,WNW,298,3.0,0.0,38,0.00,CLR,,0.00,WeatherDisplay:10.37,2013-03-25 19:53:00,
2013-03-25 12:58:00,47.4,23.0,29.97,WNW,299,0.0,0.0,38,0.00,CLR,,0.00,WeatherDisplay:10.37,2013-03-25 19:58:00,
2013-03-25 13:03:00,47.7,23.3,29.97,WNW,295,2.3,0.0,38,0.00,CLR,,0.00,WeatherDisplay:10.37,2013-03-25 20:03:00,
2013-03-25 13:09:00,47.4,22.4,29.97,WNW,296,0.0,0.0,37,0.00,CLR,,0.00,WeatherDisplay:10.37,2013-03-25 20:09:00,
2013-03-25 13:15:00,47.1,23.4,29.97,WNW,298,0.0,0.0,39,0.00,CLR,,0.00,WeatherDisplay:10.37,2013-03-25 20:15:00,
2013-03-25 13:20:00,47.4,23.0,29.96,WNW,299,0.0,0.0,38,0.00,CLR,,0.00,WeatherDisplay:10.37,2013-03-25 20:20:00,
2013-03-25 13:25:00,47.7,23.3,29.96,WNW,298,0.0,0.0,38,0.00,CLR,,0.00,WeatherDisplay:10.37,2013-03-25 20:25:00,
2013-03-25 13:30:00,47.7,23.3,29.96,WNW,288,0.0,0.0,38,0.00,CLR,,0.00,WeatherDisplay:10.37,2013-03-25 20:30:00,
2013-03-25 13:35:00,47.7,23.9,29.96,WNW,288,0.0,0.0,39,0.00,CLR,,0.00,WeatherDisplay:10.37,2013-03-25 20:35:00,
2013-03-25 13:40:00,48.2,23.8,29.95,WNW,288,0.0,0.0,38,0.00,CLR,,0.00,WeatherDisplay:10.37,2013-03-25 20:40:00,
2013-03-25 13:46:00,48.6,23.5,29.94,West,278,0.0,0.0,37,0.00,CLR,,0.00,WeatherDisplay:10.37,2013-03-25 20:46:00,
2013-03-25 13:52:00,48.5,23.4,29.95,NW,304,0.0,0.0,37,0.00,CLR,,0.00,WeatherDisplay:10.37,2013-03-25 20:52:00,
2013-03-25 13:57:00,48.6,24.1,29.94,NW,319,0.0,0.0,38,0.00,CLR,,0.00,WeatherDisplay:10.37,2013-03-25 20:57:00,
2013-03-25 14:02:00,48.6,24.1,29.94,NW,308,0.0,0.0,38,0.00,CLR,,0.00,WeatherDisplay:10.37,2013-03-25 21:02:00,
2013-03-25 14:08:00,48.3,23.8,29.94,NW,304,0.0,0.0,38,0.00,CLR,,0.00,WeatherDisplay:10.37,2013-03-25 21:08:00,
2013-03-25 14:14:00,48.2,23.7,29.94,WNW,291,0.0,0.0,38,0.00,CLR,,0.00,WeatherDisplay:10.37,2013-03-25 21:14:00,
2013-03-25 14:19:00,48.2,23.1,29.94,WNW,284,0.0,0.0,37,0.00,CLR,,0.00,WeatherDisplay:10.37,2013-03-25 21:19:00,
2013-03-25 14:25:00,48.3,23.8,29.94,WNW,297,0.0,2.0,38,0.00,CLR,,0.00,WeatherDisplay:10.37,2013-03-25 21:25:00,
2013-03-25 14:30:00,48.9,24.4,29.94,WNW,292,0.0,0.0,38,0.00,CLR,,0.00,WeatherDisplay:10.37,2013-03-25 21:30:00,
2013-03-25 14:35:00,49.1,23.3,29.94,WNW,295,3.5,0.0,36,0.00,CLR,,0.00,WeatherDisplay:10.37,2013-03-25 21:35:00,
2013-03-25 14:40:00,49.5,23.6,29.93,WNW,299,1.1,0.0,36,0.00,CLR,,0.00,WeatherDisplay:10.37,2013-03-25 21:40:00,
2013-03-25 14:45:00,50.1,25.5,29.92,NW,309,0.0,0.0,38,0.00,CLR,,0.00,WeatherDisplay:10.37,2013-03-25 21:45:00,
2013-03-25 14:50:00,50.2,24.9,29.92,North,352,5.8,0.0,37,0.00,CLR,,0.00,WeatherDisplay:10.37,2013-03-25 21:50:00,
2013-03-25 14:57:00,49.9,24.6,29.92,NW,308,0.0,0.0,37,0.00,CLR,,0.00,WeatherDisplay:10.37,2013-03-25 21:57:00,
2013-03-25 15:02:00,50.2,24.2,29.92,WNW,294,0.0,0.0,36,0.00,CLR,,0.00,WeatherDisplay:10.37,2013-03-25 22:02:00,
2013-03-25 15:07:00,50.4,25.7,29.92,WNW,288,0.0,0.0,38,0.00,CLR,,0.00,WeatherDisplay:10.37,2013-03-25 22:07:00,
2013-03-25 15:12:00,50.2,24.9,29.92,WNW,285,1.0,1.0,37,0.00,CLR,,0.00,WeatherDisplay:10.37,2013-03-25 22:12:00,
2013-03-25 15:17:00,49.9,24.0,29.92,WNW,301,1.1,0.0,36,0.00,CLR,,0.00,WeatherDisplay:10.37,2013-03-25 22:17:00,
2013-03-25 15:22:00,49.6,25.0,29.92,NW,308,0.0,0.0,38,0.00,CLR,,0.00,WeatherDisplay:10.37,2013-03-25 22:22:00,
2013-03-25 15:27:00,49.4,24.2,29.92,WNW,295,0.0,0.0,37,0.00,CLR,,0.00,WeatherDisplay:10.37,2013-03-25 22:27:00,
2013-03-25 15:32:00,49.6,24.4,29.91,WNW,298,0.0,0.0,37,0.00,CLR,,0.00,WeatherDisplay:10.37,2013-03-25 22:32:00,
2013-03-25 15:37:00,49.9,24.6,29.92,WNW,285,1.1,0.0,37,0.00,CLR,,0.00,WeatherDisplay:10.37,2013-03-25 22:37:00,
2013-03-25 15:42:00,49.9,25.3,29.91,WNW,289,0.0,0.0,38,0.00,CLR,,0.00,WeatherDisplay:10.37,2013-03-25 22:42:00,
2013-03-25 15:47:00,49.9,24.6,29.92,WNW,288,1.1,0.0,37,0.00,CLR,,0.00,WeatherDisplay:10.37,2013-03-25 22:47:00,
2013-03-25 15:52:00,49.8,24.5,29.91,NW,305,0.0,0.0,37,0.00,CLR,,0.00,WeatherDisplay:10.37,2013-03-25 22:52:00,
2013-03-25 15:57:00,49.5,24.3,29.91,WNW,301,3.0,3.0,37,0.00,CLR,,0.00,WeatherDisplay:10.37,2013-03-25 22:57:00,
2013-03-25 16:02:00,49.4,24.8,29.92,WNW,291,0.0,0.0,38,0.00,CLR,,0.00,WeatherDisplay:10.37,2013-03-25 23:02:00,
2013-03-25 16:07:00,49.6,25.0,29.91,WNW,298,1.1,0.0,38,0.00,CLR,,0.00,WeatherDisplay:10.37,2013-03-25 23:07:00,
2013-03-25 16:13:00,49.5,25.5,29.91,WNW,294,0.0,0.0,39,0.00,CLR,,0.00,WeatherDisplay:10.37,2013-03-25 23:13:00,
2013-03-25 16:18:00,49.2,25.3,29.92,WNW,295,3.5,3.5,39,0.00,CLR,,0.00,WeatherDisplay:10.37,2013-03-25 23:18:00,
2013-03-25 16:23:00,48.6,25.3,29.92,NW,311,12.0,12.0,40,0.00,CLR,,0.00,WeatherDisplay:10.37,2013-03-25 23:23:00,
2013-03-25 16:28:00,48.6,25.9,29.92,NNW,330,0.0,0.0,41,0.00,CLR,,0.00,WeatherDisplay:10.37,2013-03-25 23:28:00,
2013-03-25 16:33:00,48.6,25.3,29.91,WNW,289,3.5,3.5,40,0.00,CLR,,0.00,WeatherDisplay:10.37,2013-03-25 23:33:00,
2013-03-25 16:38:00,48.8,26.1,29.91,WNW,287,0.0,0.0,41,0.00,CLR,,0.00,WeatherDisplay:10.37,2013-03-25 23:38:00,
2013-03-25 16:43:00,48.8,26.1,29.91,WNW,289,0.0,0.0,41,0.00,CLR,,0.00,WeatherDisplay:10.37,2013-03-25 23:43:00,
2013-03-25 16:48:00,48.5,25.8,29.91,WNW,299,1.1,1.1,41,0.00,CLR,,0.00,WeatherDisplay:10.37,2013-03-25 23:48:00,
2013-03-25 16:54:00,48.5,25.8,29.91,WNW,302,0.0,0.0,41,0.00,CLR,,0.00,WeatherDisplay:10.37,2013-03-25 23:54:00,
2013-03-25 16:59:00,48.3,26.2,29.91,NW,308,0.0,0.0,42,0.00,CLR,,0.00,WeatherDisplay:10.37,2013-03-25 23:59:00,
2013-03-25 17:04:00,48.2,26.2,29.91,WNW,292,3.5,3.5,42,0.00,CLR,,0.00,WeatherDisplay:10.37,2013-03-26 00:04:00,
2013-03-25 17:10:00,47.9,25.9,29.91,WNW,287,0.0,0.0,42,0.00,CLR,,0.00,WeatherDisplay:10.37,2013-03-26 00:10:00,
2013-03-25 17:15:00,48.0,26.0,29.91,WNW,296,0.0,0.0,42,0.00,CLR,,0.00,WeatherDisplay:10.37,2013-03-26 00:15:00,
2013-03-25 17:20:00,47.9,25.9,29.91,WNW,296,1.1,1.1,42,0.00,CLR,,0.00,WeatherDisplay:10.37,2013-03-26 00:20:00,
2013-03-25 17:25:00,47.6,25.6,29.91,WNW,292,1.1,0.0,42,0.00,CLR,,0.00,WeatherDisplay:10.37,2013-03-26 00:25:00,
2013-03-25 17:30:00,47.4,26.0,29.91,WNW,298,1.1,0.0,43,0.00,CLR,,0.00,WeatherDisplay:10.37,2013-03-26 00:30:00,
2013-03-25 17:35:00,47.3,25.9,29.91,NW,311,2.3,2.3,43,0.00,CLR,,0.00,WeatherDisplay:10.37,2013-03-26 00:35:00,
2013-03-25 17:40:00,47.3,25.9,29.91,WNW,288,1.1,0.0,43,0.00,CLR,,0.00,WeatherDisplay:10.37,2013-03-26 00:40:00,
2013-03-25 17:45:00,47.1,26.3,29.91,WNW,299,0.0,0.0,44,0.00,CLR,,0.00,WeatherDisplay:10.37,2013-03-26 00:45:00,
2013-03-25 17:50:00,47.0,26.2,29.91,WNW,282,3.5,3.5,44,0.00,CLR,,0.00,WeatherDisplay:10.37,2013-03-26 00:50:00,
2013-03-25 17:55:00,46.8,26.0,29.91,WNW,288,0.0,3.0,44,0.00,CLR,,0.00,WeatherDisplay:10.37,2013-03-26 00:55:00,
2013-03-25 18:00:00,46.7,26.5,29.91,NW,304,11.5,0.0,45,0.00,CLR,,0.00,WeatherDisplay:10.37,2013-03-26 01:00:00,
2013-03-25 18:05:00,46.5,26.8,29.92,WNW,296,0.0,2.0,46,0.00,CLR,,0.00,WeatherDisplay:10.37,2013-03-26 01:05:00,
2013-03-25 18:10:00,46.5,26.8,29.92,WNW,289,0.0,0.0,46,0.00,CLR,,0.00,WeatherDisplay:10.37,2013-03-26 01:10:00,
2013-03-25 18:15:00,46.4,27.2,29.92,WNW,301,0.0,0.0,47,0.00,CLR,,0.00,WeatherDisplay:10.37,2013-03-26 01:15:00,
2013-03-25 18:20:00,46.4,27.2,29.92,WNW,295,0.0,0.0,47,0.00,CLR,,0.00,WeatherDisplay:10.37,2013-03-26 01:20:00,
2013-03-25 18:25:00,46.2,27.1,29.92,WNW,296,1.1,0.0,47,0.00,CLR,,0.00,WeatherDisplay:10.37,2013-03-26 01:25:00,
2013-03-25 18:30:00,46.1,27.0,29.92,WNW,298,0.0,0.0,47,0.00,CLR,,0.00,WeatherDisplay:10.37,2013-03-26 01:30:00,
2013-03-25 18:35:00,46.1,27.0,29.92,WNW,296,0.0,0.0,47,0.00,CLR,,0.00,WeatherDisplay:10.37,2013-03-26 01:35:00,
2013-03-25 18:40:00,46.0,27.4,29.92,WNW,291,0.0,0.0,48,0.00,CLR,,0.00,WeatherDisplay:10.37,2013-03-26 01:40:00,
2013-03-25 18:45:00,46.0,27.4,29.92,WNW,290,0.0,0.0,48,0.00,CLR,,0.00,WeatherDisplay:10.37,2013-03-26 01:45:00,
2013-03-25 18:50:00,45.8,27.2,29.92,WNW,287,1.0,0.0,48,0.00,CLR,,0.00,WeatherDisplay:10.37,2013-03-26 01:50:00,
2013-03-25 18:55:00,45.8,27.2,29.92,WNW,299,0.0,0.0,48,0.00,CLR,,0.00,WeatherDisplay:10.37,2013-03-26 01:55:00,
2013-03-25 19:00:00,45.7,27.1,29.92,WNW,291,0.0,0.0,48,0.00,CLR,,0.00,WeatherDisplay:10.37,2013-03-26 02:00:00,
2013-03-25 19:05:00,45.5,27.4,29.91,WNW,302,0.0,0.0,49,0.00,CLR,,0.00,WeatherDisplay:10.37,2013-03-26 02:05:00,
2013-03-25 19:10:00,45.4,27.3,29.92,WNW,302,0.0,0.0,49,0.00,CLR,,0.00,WeatherDisplay:10.37,2013-03-26 02:10:00,
2013-03-25 19:15:00,45.2,27.2,29.92,WNW,302,0.0,0.0,49,0.00,CLR,,0.00,WeatherDisplay:10.37,2013-03-26 02:15:00,
2013-03-25 19:20:00,45.1,27.6,29.92,WNW,302,0.0,0.0,50,0.00,CLR,,0.00,WeatherDisplay:10.37,2013-03-26 02:20:00,
2013-03-25 19:25:00,45.1,27.6,29.92,WNW,302,0.0,0.0,50,0.00,CLR,,0.00,WeatherDisplay:10.37,2013-03-26 02:25:00,
2013-03-25 19:30:00,44.9,27.4,29.92,WNW,299,0.0,0.0,50,0.00,CLR,,0.00,WeatherDisplay:10.37,2013-03-26 02:30:00,
2013-03-25 19:35:00,44.8,27.3,29.92,WNW,300,0.0,0.0,50,0.00,CLR,,0.00,WeatherDisplay:10.37,2013-03-26 02:35:00,
2013-03-25 19:40:00,44.6,27.1,29.92,WNW,282,0.0,0.0,50,0.00,CLR,,0.00,WeatherDisplay:10.37,2013-03-26 02:40:00,
2013-03-25 19:45:00,44.6,27.1,29.93,WNW,282,0.0,0.0,50,0.00,CLR,,0.00,WeatherDisplay:10.37,2013-03-26 02:45:00,
2013-03-25 19:50:00,44.5,27.5,29.93,WNW,282,0.0,0.0,51,0.00,CLR,,0.00,WeatherDisplay:10.37,2013-03-26 02:50:00,
2013-03-25 19:55:00,44.3,27.3,29.94,WNW,283,0.0,0.0,51,0.00,CLR,,0.00,WeatherDisplay:10.37,2013-03-26 02:55:00,
2013-03-25 20:00:00,44.3,26.8,29.93,WNW,287,0.0,0.0,50,0.00,CLR,,0.00,WeatherDisplay:10.37,2013-03-26 03:00:00,
2013-03-25 20:05:00,44.2,27.2,29.92,WNW,287,0.0,0.0,51,0.00,CLR,,0.00,WeatherDisplay:10.37,2013-03-26 03:05:00,
2013-03-25 20:10:00,44.1,26.6,29.92,WNW,292,1.1,0.0,50,0.00,CLR,,0.00,WeatherDisplay:10.37,2013-03-26 03:10:00,
2013-03-25 20:15:00,44.1,27.1,29.92,WNW,292,0.0,0.0,51,0.00,CLR,,0.00,WeatherDisplay:10.37,2013-03-26 03:15:00,
2013-03-25 20:20:00,43.9,26.9,29.92,WNW,296,0.0,0.0,51,0.00,CLR,,0.00,WeatherDisplay:10.37,2013-03-26 03:20:00,
2013-03-25 20:25:00,43.9,26.9,29.92,WNW,296,0.0,0.0,51,0.00,CLR,,0.00,WeatherDisplay:10.37,2013-03-26 03:25:00,
2013-03-25 20:30:00,43.8,26.8,29.92,WNW,292,0.0,0.0,51,0.00,CLR,,0.00,WeatherDisplay:10.37,2013-03-26 03:30:00,
2013-03-25 20:35:00,43.6,26.6,29.92,WNW,289,0.0,0.0,51,0.00,CLR,,0.00,WeatherDisplay:10.37,2013-03-26 03:35:00,
2013-03-25 20:40:00,43.6,26.6,29.93,WNW,289,0.0,0.0,51,0.00,CLR,,0.00,WeatherDisplay:10.37,2013-03-26 03:40:00,
2013-03-25 20:45:00,43.5,26.6,29.93,WNW,294,0.0,0.0,51,0.00,CLR,,0.00,WeatherDisplay:10.37,2013-03-26 03:45:00,
2013-03-25 20:50:00,43.5,26.5,29.93,WNW,302,0.0,0.0,51,0.00,CLR,,0.00,WeatherDisplay:10.37,2013-03-26 03:50:00,
2013-03-25 20:55:00,43.3,26.4,29.93,WNW,300,0.0,0.0,51,0.00,CLR,,0.00,WeatherDisplay:10.37,2013-03-26 03:55:00,
2013-03-25 21:00:00,43.2,26.7,29.93,WNW,294,0.0,0.0,52,0.00,CLR,,0.00,WeatherDisplay:10.37,2013-03-26 04:00:00,
2013-03-25 21:06:00,43.1,26.7,29.93,WNW,292,0.0,0.0,52,0.00,CLR,,0.00,WeatherDisplay:10.37,2013-03-26 04:06:00,
2013-03-25 21:10:00,43.1,26.7,29.93,WNW,292,0.0,0.0,52,0.00,CLR,,0.00,WeatherDisplay:10.37,2013-03-26 04:10:00,
2013-03-25 21:12:00,43.1,26.2,29.93,WNW,289,0.0,0.0,51,0.00,CLR,,0.00,WeatherDisplay:10.37,2013-03-26 04:12:00,
2013-03-25 21:17:00,43.1,26.7,29.94,NW,309,0.0,0.0,52,0.00,CLR,,0.00,WeatherDisplay:10.37,2013-03-26 04:17:00,
2013-03-25 21:22:00,42.9,26.5,29.94,NW,308,0.0,0.0,52,0.00,CLR,,0.00,WeatherDisplay:10.37,2013-03-26 04:22:00,
2013-03-25 21:27:00,42.8,26.8,29.94,NW,308,0.0,0.0,53,0.00,CLR,,0.00,WeatherDisplay:10.37,2013-03-26 04:27:00,
2013-03-25 21:32:00,42.6,26.6,29.94,NW,308,0.0,0.0,53,0.00,CLR,,0.00,WeatherDisplay:10.37,2013-03-26 04:32:00,
2013-03-25 21:37:00,42.5,26.6,29.94,NW,308,0.0,0.0,53,0.00,CLR,,0.00,WeatherDisplay:10.37,2013-03-26 04:37:00,
2013-03-25 21:42:00,42.5,26.6,29.94,WNW,292,0.0,0.0,53,0.00,CLR,,0.00,WeatherDisplay:10.37,2013-03-26 04:42:00,
2013-03-25 21:47:00,42.5,26.6,29.94,West,277,0.0,0.0,53,0.00,CLR,,0.00,WeatherDisplay:10.37,2013-03-26 04:47:00,
2013-03-25 21:52:00,42.3,26.4,29.94,West,277,0.0,0.0,53,0.00,CLR,,0.00,WeatherDisplay:10.37,2013-03-26 04:52:00,
2013-03-25 21:57:00,42.3,26.4,29.94,West,277,0.0,0.0,53,0.00,CLR,,0.00,WeatherDisplay:10.37,2013-03-26 04:57:00,
2013-03-25 22:03:00,42.3,26.4,29.93,West,277,0.0,0.0,53,0.00,CLR,,0.00,WeatherDisplay:10.37,2013-03-26 05:03:00,
2013-03-25 22:08:00,42.2,26.3,29.93,West,277,0.0,0.0,53,0.00,CLR,,0.00,WeatherDisplay:10.37,2013-03-26 05:08:00,
2013-03-25 22:13:00,42.2,26.3,29.93,West,277,0.0,0.0,53,0.00,CLR,,0.00,WeatherDisplay:10.37,2013-03-26 05:13:00,
2013-03-25 22:18:00,42.2,26.7,29.93,West,277,0.0,0.0,54,0.00,CLR,,0.00,WeatherDisplay:10.37,2013-03-26 05:18:00,
2013-03-25 22:23:00,42.1,26.6,29.93,West,277,0.0,0.0,54,0.00,CLR,,0.00,WeatherDisplay:10.37,2013-03-26 05:23:00,
2013-03-25 22:29:00,41.9,26.4,29.93,West,277,0.0,0.0,54,0.00,CLR,,0.00,WeatherDisplay:10.37,2013-03-26 05:29:00,
2013-03-25 22:34:00,41.9,26.4,29.93,West,275,0.0,0.0,54,0.00,CLR,,0.00,WeatherDisplay:10.37,2013-03-26 05:34:00,
2013-03-25 22:39:00,41.9,26.4,29.93,West,277,0.0,0.0,54,0.00,CLR,,0.00,WeatherDisplay:10.37,2013-03-26 05:39:00,
2013-03-25 22:44:00,41.8,26.4,29.93,West,277,0.0,0.0,54,0.00,CLR,,0.00,WeatherDisplay:10.37,2013-03-26 05:44:00,
2013-03-25 22:49:00,41.8,26.4,29.93,West,272,0.0,0.0,54,0.00,CLR,,0.00,WeatherDisplay:10.37,2013-03-26 05:49:00,
2013-03-25 22:54:00,41.8,26.4,29.93,WNW,289,0.0,0.0,54,0.00,CLR,,0.00,WeatherDisplay:10.37,2013-03-26 05:54:00,
2013-03-25 23:00:00,41.8,26.4,29.93,WNW,287,0.0,0.0,54,0.00,CLR,,0.00,WeatherDisplay:10.37,2013-03-26 06:00:00,
2013-03-25 23:05:00,41.6,26.2,29.92,West,280,0.0,0.0,54,0.00,CLR,,0.00,WeatherDisplay:10.37,2013-03-26 06:05:00,
2013-03-25 23:10:00,41.5,26.1,29.92,West,267,0.0,0.0,54,0.00,CLR,,0.00,WeatherDisplay:10.37,2013-03-26 06:10:00,
2013-03-25 23:15:00,41.5,26.1,29.93,West,267,0.0,0.0,54,0.00,CLR,,0.00,WeatherDisplay:10.37,2013-03-26 06:15:00,
2013-03-25 23:20:00,41.5,26.1,29.93,West,267,0.0,0.0,54,0.00,CLR,,0.00,WeatherDisplay:10.37,2013-03-26 06:20:00,
2013-03-25 23:25:00,41.3,25.9,29.93,West,275,0.0,0.0,54,0.00,CLR,,0.00,WeatherDisplay:10.37,2013-03-26 06:25:00,
2013-03-25 23:30:00,41.3,25.9,29.93,West,280,0.0,0.0,54,0.00,CLR,,0.00,WeatherDisplay:10.37,2013-03-26 06:30:00,
2013-03-25 23:35:00,41.2,25.8,29.93,WNW,284,0.0,0.0,54,0.00,CLR,,0.00,WeatherDisplay:10.37,2013-03-26 06:35:00,
2013-03-25 23:40:00,41.2,26.2,29.93,WNW,294,0.0,0.0,55,0.00,CLR,,0.00,WeatherDisplay:10.37,2013-03-26 06:40:00,
2013-03-25 23:45:00,41.1,25.7,29.93,WNW,297,0.0,3.0,54,0.00,CLR,,0.00,WeatherDisplay:10.37,2013-03-26 06:45:00,
2013-03-25 23:50:00,41.1,25.7,29.93,WNW,294,0.0,2.0,54,0.00,CLR,,0.00,WeatherDisplay:10.37,2013-03-26 06:50:00,
2013-03-25 23:55:00,40.9,26.0,29.93,WNW,289,0.0,0.0,55,0.00,CLR,,0.00,WeatherDisplay:10.37,2013-03-26 06:55:00,